Regional Weather Roundup
Issued by NWS

Home | Current Version | Previous Version | Text Only | Print | Product List | Glossary Off
Versions: 1 2 3 4 5 6 7 8 9 10 11 12 13 14 15 16 17 18 19 20 21 22 23 24 25 26 27 28 29 30 31 32 33 34 35 36 37 38 39 40 41 42 43 44 45 46 47 48 49 50

000
ASUS45 KPSR 220710
RWRAZ

ARIZONA HOURLY REGIONAL WEATHER ROUNDUP
NATIONAL WEATHER SERVICE PHOENIX AZ
1200 AM MST TUE AUG 22 2017

NOTE: FAIR INDICATES FEW OR NO CLOUDS BELOW 12,000 FEET WITH NO
SIGNIFICANT WEATHER AND/OR OBSTRUCTIONS TO VISIBILITY.

AZZ001>003-036-220800-
NORTHWEST ARIZONA

CITY           SKY/WX    TMP DP  RH WIND       PRES   REMARKS
BULLHEAD CITY  CLEAR     88  52  29 NE5       29.92R
KINGMAN        CLEAR     63  58  83 CALM      30.13S
$$

AZZ004>008-015-016-018-220800-
NORTH CENTRAL ARIZONA

CITY           SKY/WX    TMP DP  RH WIND       PRES   REMARKS
GRAND CANYON   CLOUDY    58  56  93 CALM      30.34S THUNDER
WILLIAMS       PTCLDY    55  52  88 S7        30.35S
PRESCOTT       PTCLDY    62  52  69 S9        30.23S
FLAGSTAFF      PTCLDY    53  50  89 CALM      30.37S
PAYSON           N/A     64  57  77 CALM      30.24S
PAGE           CLOUDY    79  47  32 CALM      30.17R
$$

AZZ009>014-017-220800-
NORTHEAST ARIZONA

CITY           SKY/WX    TMP DP  RH WIND       PRES   REMARKS
WINSLOW        MOCLDY    68  52  56 W6        30.21S
SAINT JOHNS    PTCLDY    68  50  52 S5        30.26S
WINDOW ROCK    PTCLDY    57  51  80 S5        30.35S
SHOW LOW       CLEAR     61  52  72 SE7       30.33S
$$

AZZ540-542>544-546-548-220800-
GREATER PHOENIX AREA

CITY           SKY/WX    TMP DP  RH WIND       PRES   REMARKS
PHOENIX        CLEAR     92  55  28 W5        29.89S
BUCKEYE        CLEAR     86  52  30 N8        29.91S
LUKE AFB       CLEAR     86  57  36 N8        29.90R
DEER VALLEY    CLEAR     89  53  29 CALM      29.92S
SCOTTSDALE     CLEAR     88  53  30 NW5       29.94R
MESA-GATEWAY   CLEAR     84  52  32 E6        29.93S
$$

AZZ539-553-220800-
SOUTHWEST MARICOPA COUNTY AND PINAL COUNTY

CITY           SKY/WX    TMP DP  RH WIND       PRES   REMARKS
CASA GRANDE    CLEAR     83  57  41 CALM      29.94S
GILA BEND      FAIR      86  49  27 S6        29.89S
$$

AZZ503-504-507>509-220800-
SOUTHEAST ARIZONA

CITY           SKY/WX    TMP DP  RH WIND       PRES   REMARKS
TUCSON         NOT AVBL
DAVIS-MONTHAN  PTCLDY    78  53  41 S8        30.02S
NOGALES        MOCLDY    76  60  57 N3        30.14S
SIERRA VISTA   CLOUDY    76  50  40 CALM      30.20S
DOUGLAS        CLEAR     71  59  65 E6        30.15S
SAFFORD        CLEAR     76  51  41 SE3       30.05S
$$

AZZ532-220800-
SOUTHWEST ARIZONA

CITY           SKY/WX    TMP DP  RH WIND       PRES   REMARKS
YUMA           CLEAR     89  58  34 CALM      29.85S
$$

CAZ041-043-047-048-061-525>527-560>570-220800-
SOUTHERN CALIFORNIA

CITY           SKY/WX    TMP DP  RH WIND       PRES   REMARKS
DOWNTOWN L.A.  CLEAR     69  62  78 W3        29.99R
L.A. AIRPORT   PTCLDY    67  63  87 W9        29.99S
SAN DIEGO      PTCLDY    70  62  76 N5        29.99F
BURBANK        CLEAR     67  59  75 E5        29.99S
ONTARIO        CLEAR     68  59  73 CALM      30.00R
RIVERSIDE      CLEAR     68  61  78 W3        30.00S
PALM SPRINGS   CLEAR     87  54  32 W5        29.89S
EL CENTRO NAS  CLEAR     86  46  24 W6        29.85S
IMPERIAL       CLEAR     87  46  24 SE6       29.83R
BLYTHE         CLEAR     91  54  28 NE5       29.87R
NEEDLES        CLEAR     89  54  30 SE3       29.93R
$$

NVZ020-UTZ003-220800-
SOUTHERN NEVADA-UTAH

CITY           SKY/WX    TMP DP  RH WIND       PRES   REMARKS
LAS VEGAS      PTCLDY    83  54  36 W3        30.03S
SALT LAKE CITY PTCLDY    76  44  32 SE8       30.13S
$$

NMZ009-TXZ055-220800-
NEW MEXICO-WEST TEXAS

CITY           SKY/WX    TMP DP  RH WIND       PRES   REMARKS
ALBUQUERQUE    MOCLDY    70  54  56 N14       30.27R
EL PASO        PTCLDY    76  68  76 CALM      30.13F
$$


........................KEY........................
SKY/WX - SKY CONDITION/WEATHER
TMP    - TEMPERATURE IN FAHRENHEIT
DP     - DEW POINT IN FAHRENHEIT
RH     - RELATIVE HUMIDITY IN PERCENT
WIND   - DIRECTION AND SPEED IN MILES PER HOUR (MPH)
VRB    - VARIABLE WIND DIRECTION
PRES   - MEAN SEA LEVEL PRESSURE IN INCHES OF MERCURY
         F - FALLING PRESSURE   R - RISING PRESSURE
         S - STEADY PRESSURE
VSB    - VISIBILITY IN MILES
HX     - HEAT INDEX IN FAHRENHEIT
WCI    - WIND CHILL INDEX IN FAHRENHEIT
TC     - TEMPERATURE IN CELSIUS WHICH IS ALSO KNOWN AS
         TEMPERATURE IN CENTIGRADE
AFB    - AIR FORCE BASE
         LUKE AFB IS LUKE AIR FORCE BASE
         DAVIS-MONTHAN IS DAVIS-MONTHAN AIR FORCE BASE
NAS    - NAVAL AIR STATION
         EL CENTRO NAS IS EL CENTRO NAVAL AIR STATION
N/A    - NOT AVAILABLE




USA.gov is the U.S. government's official web portal to all federal, state and local government web resources and services.